FW9686 Weather Reports


Display with metric or nautical units.
time (UTC)temp
F
wind
direction
speed
MPH
gust
MPH
rain 1hr
in
rain 24hr
in
rain mn
in
humidity
%
barometer
mb
20260507164630 58 192 0.0 10.0 0.00 0.00 0.00 58 1014.6
20260507164521 58 192 0.0 10.0 0.00 0.00 0.00 58 1014.6
20260507163056 57 155 0.0 2.0 0.00 0.00 0.00 58 1014.9
20260507161555 57 93 0.0 0.0 0.00 0.00 0.00 60 1015.0
20260507160045 55 93 0.0 1.0 0.00 0.00 0.00 61 1015.3
20260507154540 55 90 0.0 1.0 0.00 0.00 0.00 62 1015.5
20260507153041 55 88 0.0 1.0 0.00 0.00 0.00 61 1015.6
20260507151533 54 88 0.0 0.0 0.00 0.00 0.00 61 1015.8
20260507150034 54 88 0.0 1.0 0.00 0.00 0.00 62 1016.1
20260507144534 53 88 1.0 12.0 0.00 0.00 0.00 63 1016.3
20260507143028 52 13 0.0 1.0 0.00 0.00 0.00 62 1016.5
20260507141524 51 9 0.0 8.0 0.00 0.00 0.00 62 1016.4
20260507140024 50 5 4.0 9.0 0.00 0.00 0.00 63 1016.5
20260507134524 50 10 1.0 9.0 0.00 0.00 0.00 63 1016.4
20260507133025 50 5 3.0 11.0 0.00 0.00 0.00 64 1016.2
20260507131521 49 360 7.0 11.0 0.00 0.00 0.00 64 1016.2
20260507130018 49 5 8.0 12.0 0.00 0.00 0.00 65 1015.9
20260507124520 49 5 6.0 13.0 0.00 0.00 0.00 66 1015.7
20260507123014 48 360 8.0 13.0 0.00 0.00 0.00 67 1015.6
20260507121513 48 351 8.0 12.0 0.00 0.00 0.00 68 1015.4
20260507120009 48 345 9.0 12.0 0.00 0.00 0.00 68 1015.3
20260507114509 48 343 6.0 10.0 0.00 0.00 0.00 68 1015.2
20260507113023 49 355 1.0 5.0 0.00 0.00 0.00 65 1015.0
20260507111503 51 27 1.0 3.0 0.00 0.00 0.00 63 1014.9
20260507110059 51 34 0.0 2.0 0.00 0.00 0.00 63 1014.8
20260507104556 52 37 0.0 6.0 0.00 0.00 0.00 62 1014.6
20260507103055 52 44 0.0 1.0 0.00 0.00 0.00 61 1014.3
20260507101549 53 44 0.0 6.0 0.00 0.00 0.00 61 1014.2
20260507100046 54 69 6.0 14.0 0.00 0.00 0.00 61 1013.8
20260507094544 54 79 13.0 22.0 0.00 0.00 0.00 59 1013.4
20260507093045 54 76 15.0 23.0 0.00 0.00 0.00 59 1013.1
20260507091542 55 88 18.0 27.0 0.00 0.00 0.00 58 1012.7
20260507090038 55 82 17.0 23.0 0.00 0.00 0.00 57 1012.6
20260507084543 55 79 16.0 26.0 0.00 0.00 0.00 57 1012.4
20260507083034 56 84 17.0 26.0 0.00 0.00 0.00 56 1012.2
20260507081539 57 81 18.0 25.0 0.00 0.00 0.00 56 1012.2
20260507080033 58 90 17.0 26.0 0.00 0.00 0.00 56 1011.6
20260507074532 57 59 19.0 28.0 0.00 0.00 0.00 58 1011.6
20260507073027 52 360 10.0 16.0 0.00 0.00 0.00 60 1011.4
20260507071523 52 347 13.0 22.0 0.00 0.00 0.00 60 1011.2
20260507070018 52 355 19.0 25.0 0.00 0.00 0.00 59 1010.8
20260507064515 54 343 17.0 25.0 0.00 0.00 0.00 55 1010.6
20260507063011 58 355 19.0 28.0 0.00 0.00 0.00 47 1010.4
20260507061507 59 343 18.0 27.0 0.00 0.00 0.00 46 1010.4
20260507060003 59 336 17.0 23.0 0.00 0.00 0.00 44 1010.1
20260507054600 60 328 16.0 22.0 0.00 0.00 0.00 41 1009.9
20260507053056 61 330 12.0 19.0 0.00 0.00 0.00 41 1009.6
20260507051552 62 343 13.0 19.0 0.00 0.00 0.00 38 1009.4
20260507050047 65 327 12.0 17.0 0.00 0.00 0.00 27 1009.2
20260507044555 65 285 7.0 10.0 0.00 0.00 0.00 25 1008.5
20260507043059 65 285 7.0 10.0 0.00 0.00 0.00 26 1008.4
20260507041542 64 246 2.0 5.0 0.00 0.00 0.00 28 1008.5
20260507040039 63 246 0.0 0.0 0.00 0.00 0.00 30 1008.4
20260507034536 64 246 0.0 0.0 0.00 0.00 0.00 29 1008.0
20260507033029 64 246 0.0 3.0 0.00 0.00 0.00 28 1007.6
20260507031525 65 246 2.0 4.0 0.00 0.00 0.00 27 1007.4
20260507030021 66 246 3.0 5.0 0.00 0.00 0.00 25 1007.1
20260507024519 68 246 5.0 8.0 0.00 0.00 0.00 22 1006.8
20260507023011 70 246 5.0 7.0 0.00 0.00 0.00 20 1006.5
20260507021510 72 247 4.0 8.0 0.00 0.00 0.00 19 1006.2
20260507020105 73 250 4.0 10.0 0.00 0.00 0.00 17 1006.0
20260507014559 74 251 9.0 13.0 0.00 0.00 0.00 16 1005.8
20260507013056 75 249 10.0 15.0 0.00 0.00 0.00 15 1005.4
20260507011550 76 270 15.0 20.0 0.00 0.00 0.00 14 1005.1
20260507010046 77 261 15.0 22.0 0.00 0.00 0.00 14 1004.9
20260507004544 77 256 17.0 26.0 0.00 0.00 0.00 13 1004.8
20260507003040 78 260 21.0 28.0 0.00 0.00 0.00 13 1004.6
20260507001605 78 263 16.0 29.0 0.00 0.00 0.00 13 1004.5
20260507000042 78 250 19.0 28.0 0.00 0.00 0.00 13 1004.4
20260506234534 78 268 20.0 30.0 0.00 0.00 0.00 12 1004.3
20260506233033 78 229 21.0 27.0 0.00 0.00 0.00 13 1004.2
20260506231532 78 257 21.0 28.0 0.00 0.00 0.00 13 1004.2
20260506230131 78 233 20.0 28.0 0.00 0.00 0.00 13 1004.0
20260506224530 78 227 18.0 32.0 0.00 0.00 0.00 13 1003.9
20260506223033 78 264 20.0 29.0 0.00 0.00 0.00 14 1004.0
20260506221528 78 238 21.0 29.0 0.00 0.00 0.00 14 1004.0
20260506220033 77 273 13.0 26.0 0.00 0.00 0.00 14 1004.0
20260506214526 78 230 20.0 26.0 0.00 0.00 0.00 14 1004.0
20260506204553 77 252 21.0 29.0 0.00 0.00 0.00 16 1004.9
20260506203049 77 270 18.0 28.0 0.00 0.00 0.00 16 1005.1
20260506201547 76 226 19.0 33.0 0.00 0.00 0.00 16 1005.0
20260506200044 76 264 22.0 30.0 0.00 0.00 0.00 14 1005.3
20260506194545 76 248 16.0 33.0 0.00 0.00 0.00 16 1005.1
20260506193046 75 243 19.0 39.0 0.00 0.00 0.00 16 1005.5
20260506191539 75 233 19.0 25.0 0.00 0.00 0.00 16 1005.6
20260506190038 73 219 4.0 16.0 0.00 0.00 0.00 24 1005.8
20260506184543 72 286 10.0 16.0 0.00 0.00 0.00 26 1006.2
20260506183031 72 173 6.0 16.0 0.00 0.00 0.00 28 1006.4
20260506181538 71 246 1.0 11.0 0.00 0.00 0.00 27 1006.8
20260506180028 70 234 13.0 21.0 0.00 0.00 0.00 28 1007.1
20260506174533 70 250 11.0 16.0 0.00 0.00 0.00 30 1007.3
20260506173028 69 272 8.0 15.0 0.00 0.00 0.00 29 1007.5
20260506171524 69 258 1.0 9.0 0.00 0.00 0.00 34 1007.3
20260506170027 68 321 0.0 10.0 0.00 0.00 0.00 36 1007.4